Temp
64 64 64 63 64 63 64 65 65 64 64 64 64 64 64 64 63 56 54 65 66 73 70 62 60 59 58 55 55 51 42 37 41 44 48 53 52 55 57 55 53 58 55 53 53
63 63 63 63 63 63 62 63 64 64 64 64 63 64 64 63 56 55 66 73 74 72 62 60 56 58 53 52 52 48 40 44 49 49 49 53 53 53 52 52 53 54 53 53 52
63 63 62 62 62 62 62 61 62 63 63 63 63 63 63 59 53 58 72 74 74 71 64 62 60 58 49 49 49 46 43 48 52 54 55 53 52 55 51 51 54 56 55 51 50
63 62 62 62 61 62 61 61 61 62 63 63 63 63 63 56 47 60 73 73 73 66 65 60 56 51 47 46 49 43 50 52 54 54 53 51 53 51 53 57 58 58 56 51 50
62 61 61 61 61 61 61 61 60 61 63 63 63 63 57 50 55 65 71 71 66 64 61 58 53 51 47 46 47 44 49 53 55 54 52 53 52 53 54 57 58 56 54 51 52
61 61 60 60 61 61 61 61 60 61 62 62 63 63 53 47 60 63 64 64 63 62 58 58 56 55 50 48 48 47 49 52 53 54 52 52 48 52 55 55 56 54 53 51 52
60 60 60 60 60 60 60 60 61 62 62 62 63 60 52 54 60 62 64 60 62 62 57 58 59 54 51 47 51 49 47 49 50 49 51 51 48 49 54 54 56 54 53 52 51
60 59 59 59 59 60 60 60 60 61 61 63 63 55 50 62 59 62 61 60 61 62 61 61 61 56 51 51 51 45 42 39 48 48 49 50 45 51 54 53 54 55 54 53 52
59 59 58 59 59 59 59 61 60 61 62 63 54 51 50 63 58 60 59 60 60 60 60 66 59 50 50 43 40 39 35 36 44 47 47 46 45 51 52 53 50 47 46 46 46
58 58 58 58 58 58 59 60 61 60 60 62 61 48 54 54 58 61 59 61 58 57 55 53 47 43 39 40 33 35 34 35 38 44 44 41 45 50 52 43 41 40 40 39 39
57 57 57 57 58 58 55 53 52 49 50 51 51 51 55 58 60 57 60 58 56 52 44 45 41 39 41 42 41 40 36 36 41 47 43 44 44 47 43 38 36 36 35 36 36
57 56 57 57 57 58 53 51 50 51 46 52 52 54 57 58 53 55 60 52 49 43 44 41 37 45 46 44 42 39 36 36 43 44 44 41 43 42 38 36 36 34 33 33 34
56 56 56 56 56 54 51 51 55 53 44 50 53 52 54 57 51 52 57 50 45 42 42 38 44 47 46 41 40 38 36 36 40 42 41 37 37 37 35 35 36 34 33 33 32
56 56 56 56 53 51 50 54 55 54 39 44 48 52 55 55 48 56 56 52 45 42 41 40 46 45 42 42 42 34 43 44 40 36 32 37 30 35 34 30 31 30 30 29 30
56 56 56 55 48 50 53 55 54 52 26 46 48 59 54 51 50 51 54 52 43 43 42 41 41 40 39 42 44 41 43 41 39 34 30 31 32 34 32 27 27 27 27 28 29
55 56 56 52 49 51 54 53 52 39 25 42 48 46 47 48 48 49 50 53 49 43 41 42 45 45 45 45 45 45 41 38 34 33 27 33 35 28 21 23 25 26 26 26 26
55 55 53 55 49 53 52 49 37 30 43 40 41 45 43 41 44 45 41 36 34 33 33 39 40 43 45 39 41 41 36 28 26 24 26 31 30 21 25 24 23 22 23 25 25
55 55 55 56 52 53 50 43 30 35 35 43 42 42 37 39 39 41 37 32 36 33 31 30 31 39 45 41 38 36 36 29 24 24 27 31 28 21 25 26 26 25 24 25 24
54 48 49 51 53 51 46 33 31 34 38 37 40 35 33 37 37 36 31 34 37 34 30 28 31 40 43 43 42 34 33 38 32 27 25 29 18 24 26 24 23 23 22 21 22
47 46 47 51 50 49 41 36 37 39 39 40 33 34 29 33 33 33 30 38 38 39 36 33 26 36 40 42 41 37 40 31 30 24 21 25 20 19 17 17 20 19 19 20 21
48 45 51 51 50 44 33 37 39 41 40 37 34 32 31 29 31 29 34 35 37 36 35 30 28 29 35 31 29 32 28 29 30 28 23 24 20 19 15 16 15 16 18 18 19
44 41 50 50 40 34 31 37 41 36 37 37 36 33 30 29 28 28 28 31 36 34 26 29 24 18 25 29 33 28 26 28 22 18 21 23 15 17 17 17 18 16 18 17 18
39 38 47 46 33 31 34 33 34 33 31 32 29 31 30 26 24 28 30 34 34 32 24 29 21 11 22 30 32 21 19 22 25 24 15 18 11 15 15 15 16 14 15 16 17
37 35 36 36 32 31 30 30 30 34 31 31 30 30 27 24 27 23 26 31 32 31 39 35 21 16 11 17 21 18 14 16 13 3 5 7 -0 2 6 8 12 10 11 11 12
33 28 30 26 30 29 30 30 29 27 32 32 29 28 25 21 22 21 25 25 29 33 29 25 10 18 23 25 24 9 12 13 7 -1 3 -3 -5 -7 -3 3 6 6 9 9 9
31 30 30 28 31 28 29 26 27 28 28 27 26 27 25 22 23 20 23 22 21 25 22 25 10 20 11 21 18 6 8 10 11 5 -3 -7 -7 -2 -0 1 3 3 8 6 8
31 32 32 29 26 25 23 25 27 29 30 31 27 25 24 27 28 28 28 28 26 21 21 22 16 7 0 18 16 6 2 9 7 4 3 2 -2 -1 1 5 5 2 4 5 6
MSLP
1012.42 1012.18 1011.85 1011.72 1011.56 1011.61 1011.42 1011.23 1011.31 1011.25 1011.36 1011.23 1011.18 1011.27 1011.14 1011.39 1011.25 1011.31 1010.77 1009.04 1009.11 1008.97 1009.32 1010.29 1010.75 1011.04 1011.37 1011.97 1012.31 1012.89 1013.85 1014.04 1013.06 1012.31 1010.89 1010.28 1010.11 1009.83 1009.83 1010.17 1010.57 1010.83 1011.19 1011.75 1012.29
1012.41 1012.10 1011.92 1011.60 1011.48 1011.43 1011.30 1011.13 1011.08 1011.05 1011.08 1011.09 1011.06 1011.08 1011.08 1011.28 1011.21 1010.57 1008.61 1008.44 1008.69 1008.70 1009.57 1010.25 1011.00 1011.21 1011.81 1012.10 1012.43 1013.02 1013.76 1013.03 1012.04 1011.27 1010.53 1010.04 1009.89 1009.88 1010.05 1010.23 1010.59 1010.84 1011.33 1012.02 1012.66
1012.65 1012.20 1011.97 1011.76 1011.40 1011.18 1011.03 1010.96 1010.86 1010.83 1010.84 1011.00 1010.89 1010.97 1011.10 1011.13 1011.12 1008.72 1007.57 1008.06 1008.43 1008.65 1009.26 1009.94 1010.72 1011.12 1011.81 1012.14 1012.42 1012.84 1012.85 1012.13 1011.32 1010.77 1010.44 1010.11 1009.96 1009.81 1010.15 1010.18 1010.26 1010.51 1011.03 1012.17 1012.87
1012.74 1012.47 1012.23 1011.68 1011.27 1010.97 1010.82 1010.74 1010.77 1010.62 1010.76 1010.81 1010.83 1010.85 1010.94 1011.09 1010.23 1007.96 1007.44 1007.78 1008.22 1008.76 1009.36 1010.22 1010.93 1011.34 1011.86 1012.21 1012.24 1012.58 1012.04 1011.82 1011.15 1010.55 1010.44 1010.34 1010.11 1010.17 1010.13 1009.20 1009.45 1009.92 1010.71 1011.76 1012.50
1012.82 1012.42 1011.97 1011.48 1011.05 1010.80 1010.57 1010.52 1010.53 1010.59 1010.64 1010.68 1010.72 1010.74 1010.92 1010.79 1009.40 1008.02 1007.74 1007.85 1008.49 1008.93 1009.52 1010.31 1010.90 1011.43 1011.75 1012.00 1012.14 1012.31 1011.88 1011.47 1010.97 1010.81 1010.66 1010.38 1010.25 1010.47 1009.38 1009.33 1009.51 1010.15 1010.78 1011.42 1011.98
1012.85 1012.45 1011.94 1011.57 1011.13 1010.72 1010.47 1010.33 1010.36 1010.44 1010.45 1010.48 1010.54 1010.62 1010.74 1010.26 1008.36 1008.23 1008.32 1008.52 1008.72 1009.10 1009.79 1010.14 1010.56 1010.92 1011.32 1011.60 1011.90 1011.79 1011.69 1011.33 1010.92 1010.51 1010.51 1010.36 1010.35 1010.31 1009.03 1008.99 1009.52 1010.32 1010.82 1011.31 1011.69
1012.85 1012.35 1011.86 1011.51 1010.97 1010.57 1010.32 1010.16 1010.11 1010.17 1010.26 1010.30 1010.37 1010.53 1010.50 1009.05 1008.40 1008.51 1008.64 1008.72 1008.87 1009.00 1009.78 1010.04 1010.25 1010.73 1011.20 1011.47 1011.51 1011.55 1011.70 1011.24 1010.56 1010.35 1010.29 1010.19 1010.46 1010.01 1009.30 1009.51 1010.02 1010.70 1011.17 1011.61 1011.85
1012.81 1012.34 1011.87 1011.43 1010.93 1010.48 1010.14 1009.92 1009.89 1010.00 1010.15 1010.26 1010.35 1010.51 1009.74 1008.55 1008.47 1008.68 1008.74 1009.07 1009.14 1009.11 1009.37 1009.74 1010.06 1010.73 1011.17 1011.55 1011.77 1012.02 1012.16 1011.94 1010.59 1010.52 1010.36 1010.48 1010.32 1009.83 1009.76 1010.20 1010.90 1011.30 1012.08 1012.64 1013.11
1012.76 1012.28 1011.87 1011.43 1010.99 1010.52 1010.02 1009.75 1009.81 1009.92 1010.06 1010.21 1010.42 1010.36 1009.24 1008.58 1008.66 1008.57 1008.67 1009.01 1009.27 1009.40 1009.66 1009.95 1010.40 1011.31 1011.64 1012.21 1012.83 1012.86 1012.92 1012.39 1011.39 1010.69 1010.70 1010.94 1010.69 1010.32 1010.54 1011.21 1012.89 1013.76 1014.21 1014.54 1014.50
1012.84 1012.35 1011.91 1011.42 1011.00 1010.60 1010.14 1009.95 1010.01 1010.02 1010.32 1010.34 1010.29 1010.58 1009.11 1008.56 1008.41 1008.55 1008.69 1008.87 1009.37 1009.84 1010.33 1010.76 1011.55 1012.03 1012.56 1012.97 1013.20 1013.05 1013.03 1012.53 1012.07 1011.23 1011.14 1011.54 1011.50 1011.44 1012.18 1013.37 1015.32 1016.08 1016.50 1016.62 1016.69
1012.73 1012.24 1011.76 1011.30 1010.96 1010.67 1010.52 1010.48 1010.65 1010.62 1010.30 1009.57 1009.51 1009.36 1008.64 1008.49 1008.46 1008.70 1008.75 1009.05 1009.64 1010.40 1011.20 1011.60 1012.21 1011.90 1012.10 1012.34 1012.57 1012.71 1012.88 1012.74 1011.93 1011.32 1011.52 1011.81 1012.32 1012.74 1014.39 1015.57 1017.10 1018.02 1018.75 1018.95 1018.75
1012.54 1011.99 1011.44 1010.97 1010.59 1010.22 1010.29 1010.16 1009.85 1009.93 1009.71 1009.32 1009.29 1009.09 1008.64 1008.40 1008.70 1008.89 1008.89 1009.44 1010.09 1010.99 1011.61 1012.40 1012.23 1011.64 1011.93 1012.35 1012.71 1012.96 1013.11 1012.80 1011.92 1011.43 1011.78 1012.00 1012.81 1014.39 1015.83 1018.25 1019.46 1020.37 1020.74 1020.86 1020.29
1012.26 1011.69 1011.15 1010.64 1010.31 1010.13 1010.01 1009.88 1009.67 1009.69 1009.83 1009.13 1008.82 1008.65 1008.35 1008.50 1008.63 1008.96 1009.22 1009.69 1010.43 1011.30 1011.76 1012.19 1011.59 1011.36 1011.82 1012.36 1012.78 1012.79 1013.05 1012.70 1012.42 1011.84 1011.85 1012.37 1013.30 1015.32 1018.05 1019.34 1020.71 1021.74 1022.54 1022.57 1022.35
1011.96 1011.36 1010.79 1010.34 1010.31 1009.90 1009.96 1009.82 1009.70 1009.75 1009.90 1009.31 1008.64 1008.14 1008.18 1008.28 1009.01 1009.17 1009.24 1009.71 1010.53 1011.18 1011.91 1012.08 1011.32 1011.40 1011.65 1011.91 1012.11 1012.40 1011.56 1011.89 1012.40 1013.01 1013.19 1013.02 1014.62 1015.77 1018.07 1020.04 1021.64 1023.08 1023.63 1024.00 1023.83
1011.56 1010.92 1010.32 1010.39 1010.09 1009.96 1010.01 1009.74 1009.87 1010.02 1010.03 1009.33 1008.46 1007.91 1008.18 1008.82 1009.44 1009.64 1009.58 1009.71 1010.66 1011.37 1011.99 1011.46 1011.13 1011.11 1011.27 1011.04 1011.41 1011.39 1011.40 1011.98 1012.50 1013.19 1013.64 1013.99 1015.95 1016.35 1018.45 1020.84 1023.13 1024.64 1025.32 1025.69 1025.63
1011.12 1010.57 1010.10 1010.21 1010.27 1009.99 1009.79 1009.80 1010.05 1010.88 1010.08 1009.49 1008.83 1008.66 1009.07 1009.53 1009.97 1010.18 1010.27 1010.45 1011.08 1011.68 1011.99 1011.65 1011.05 1010.86 1010.48 1010.38 1010.73 1011.01 1011.62 1012.44 1013.15 1013.84 1014.30 1014.35 1016.19 1018.28 1021.56 1024.02 1025.20 1026.24 1026.82 1027.08 1026.84
1010.92 1010.39 1010.17 1010.04 1010.29 1009.87 1009.88 1010.18 1011.05 1011.21 1010.70 1010.78 1010.36 1010.16 1010.53 1011.13 1011.27 1011.40 1012.28 1013.29 1013.56 1013.47 1013.25 1012.45 1011.51 1010.84 1010.53 1010.67 1010.94 1011.19 1012.08 1013.28 1013.90 1014.55 1014.32 1015.06 1017.54 1021.12 1023.75 1025.74 1027.04 1027.77 1028.15 1028.37 1028.34
1010.55 1010.25 1010.05 1010.03 1009.93 1009.84 1010.18 1010.91 1011.80 1012.41 1012.34 1012.02 1011.76 1011.58 1012.21 1012.79 1012.98 1013.09 1013.90 1015.08 1015.40 1015.40 1015.08 1014.46 1012.80 1011.73 1011.34 1011.04 1011.12 1011.66 1012.27 1013.15 1013.58 1014.24 1014.95 1016.05 1018.93 1022.60 1025.32 1027.03 1028.19 1028.88 1029.37 1029.38 1029.26
1010.23 1010.31 1010.36 1010.16 1009.80 1009.94 1010.55 1011.74 1013.36 1013.82 1013.89 1013.51 1013.08 1013.26 1013.98 1014.12 1014.28 1014.56 1016.05 1016.69 1017.02 1017.02 1017.10 1016.42 1014.72 1013.16 1012.46 1012.09 1011.95 1012.58 1012.75 1012.73 1013.60 1014.41 1015.94 1017.03 1021.16 1024.28 1026.11 1027.77 1028.94 1029.62 1030.04 1030.28 1030.32
1010.57 1010.69 1010.64 1010.14 1009.92 1010.13 1011.32 1013.43 1014.50 1014.96 1014.84 1014.49 1014.72 1015.13 1015.65 1015.99 1015.86 1016.09 1017.08 1017.99 1017.99 1018.13 1018.12 1018.18 1017.12 1015.31 1013.99 1013.07 1012.96 1013.25 1013.71 1014.31 1015.10 1016.11 1017.05 1018.00 1021.58 1024.79 1027.40 1029.05 1030.14 1030.74 1031.18 1031.44 1031.38
1010.88 1011.00 1010.53 1010.10 1010.05 1011.13 1013.28 1014.59 1015.49 1015.87 1015.67 1015.82 1016.13 1016.65 1017.30 1017.62 1017.50 1017.76 1018.27 1019.17 1019.06 1019.04 1019.02 1019.24 1019.04 1017.69 1016.32 1016.36 1016.56 1016.09 1016.54 1017.28 1017.49 1018.01 1019.18 1020.84 1024.37 1027.63 1029.65 1031.05 1031.77 1032.27 1032.53 1032.63 1032.52
1011.27 1011.59 1010.78 1010.26 1011.77 1013.96 1015.22 1015.85 1016.44 1016.96 1016.88 1017.00 1017.43 1018.08 1018.55 1018.82 1018.88 1019.01 1019.36 1019.89 1019.99 1019.93 1020.27 1020.33 1020.34 1020.17 1019.39 1019.50 1018.93 1019.59 1020.75 1021.05 1021.29 1021.72 1022.86 1024.64 1027.45 1030.32 1031.56 1032.53 1033.05 1033.38 1033.49 1033.61 1033.68
1012.28 1012.61 1011.31 1011.05 1013.92 1015.71 1016.62 1017.40 1018.06 1018.15 1018.55 1018.62 1019.34 1019.51 1019.69 1020.06 1020.33 1020.28 1020.39 1020.97 1020.80 1020.95 1021.27 1021.25 1021.46 1021.76 1021.11 1021.10 1020.79 1022.38 1024.07 1024.33 1024.66 1025.09 1026.22 1028.51 1030.32 1032.38 1033.32 1033.95 1034.27 1034.51 1034.61 1034.53 1034.37
1013.29 1014.29 1014.35 1014.41 1016.04 1016.48 1017.55 1018.52 1019.08 1019.41 1019.79 1020.05 1020.59 1020.58 1020.72 1021.20 1021.25 1021.46 1021.49 1021.67 1021.67 1021.68 1021.66 1021.77 1022.60 1022.94 1023.12 1023.40 1024.10 1025.37 1026.50 1027.38 1027.92 1029.32 1029.82 1031.08 1033.02 1034.58 1035.47 1035.69 1035.60 1035.73 1035.72 1035.54 1035.27
1014.99 1017.09 1017.55 1017.80 1018.09 1018.09 1018.37 1019.48 1019.98 1020.38 1020.58 1020.89 1021.43 1021.64 1021.83 1022.13 1022.15 1022.25 1022.40 1022.50 1022.20 1022.39 1022.51 1023.04 1023.82 1024.11 1024.38 1024.80 1025.56 1027.55 1028.85 1029.70 1030.68 1031.86 1033.16 1034.46 1035.92 1037.06 1037.54 1037.47 1037.06 1036.81 1036.66 1036.42 1036.00
1016.99 1017.89 1018.34 1019.04 1019.26 1019.33 1019.81 1020.76 1020.96 1021.23 1021.36 1021.74 1021.96 1022.29 1022.40 1022.62 1022.67 1022.93 1023.23 1023.49 1023.56 1023.54 1023.81 1024.30 1024.77 1025.25 1025.72 1026.01 1026.90 1029.36 1030.86 1031.95 1033.10 1034.35 1035.42 1036.67 1038.04 1038.50 1038.64 1038.25 1038.09 1037.76 1037.55 1037.32 1036.88
1018.30 1018.40 1018.36 1020.19 1020.29 1020.27 1021.14 1021.38 1021.70 1021.64 1022.17 1022.16 1022.36 1022.56 1022.76 1022.91 1023.03 1023.22 1023.45 1023.74 1024.00 1024.29 1024.74 1025.33 1025.79 1026.72 1027.20 1027.67 1029.08 1031.72 1033.44 1034.27 1035.41 1036.51 1037.65 1038.75 1039.52 1039.66 1039.55 1039.24 1038.83 1038.44 1038.43 1038.19 1037.57
Wind_Speed
13 12 11 10 9 10 10 10 10 10 10 9 8 7 5 5 4 1 6 10 7 11 10 8 4 3 3 3 3 3 4 2 4 6 4 2 3 1 1 4 3 6 3 2 7
15 15 13 12 10 9 9 9 9 9 8 8 6 5 3 2 1 8 11 7 8 16 8 9 6 5 2 2 1 4 4 8 5 4 2 1 2 2 1 2 4 3 2 5 7
16 15 15 13 12 10 9 8 8 8 7 7 5 4 2 1 2 8 3 13 14 8 7 5 6 4 3 1 3 4 6 4 4 6 4 2 2 1 3 7 7 9 6 7 5
17 16 15 14 13 11 9 7 7 7 7 6 5 4 3 2 3 3 2 13 14 9 7 7 4 5 4 4 2 2 6 5 4 1 1 2 2 3 8 10 3 10 4 8 11
17 17 17 16 15 11 9 7 6 7 6 5 4 4 3 0 9 4 8 14 7 6 7 6 5 5 5 4 3 3 4 4 7 9 6 3 7 6 13 9 8 2 6 10 11
18 18 17 17 15 13 8 6 6 6 5 4 4 4 2 3 1 4 8 6 6 6 5 5 7 5 4 3 4 1 4 7 6 7 5 5 1 6 3 1 4 6 8 8 11
18 19 19 18 17 15 11 6 5 5 5 5 5 2 1 11 2 5 4 2 5 6 6 3 5 4 3 2 2 3 6 7 7 2 6 6 4 9 5 1 6 3 5 7 9
19 19 19 19 18 17 13 7 3 4 6 6 5 2 7 3 3 5 3 4 3 3 4 6 5 4 2 1 6 4 4 4 4 3 4 3 7 2 6 4 6 8 9 8 8
20 20 19 19 18 17 14 3 5 6 5 6 3 3 8 2 3 3 2 6 5 4 4 4 4 3 4 5 5 5 4 4 9 0 2 2 5 1 5 8 14 16 17 17 18
20 19 19 19 17 16 13 3 8 7 4 1 1 1 3 2 2 5 2 4 5 5 4 5 5 3 3 5 7 6 4 4 5 1 2 1 10 9 9 19 14 15 18 19 20
21 20 20 18 16 14 5 2 3 2 1 6 4 2 1 1 2 2 3 5 4 6 5 2 3 11 8 7 2 3 2 3 4 2 1 7 7 11 10 18 17 18 20 21 22
21 21 21 19 17 13 4 3 3 2 4 3 3 5 4 2 3 1 4 5 3 4 5 5 7 7 3 5 5 2 3 7 8 3 6 5 8 12 15 12 18 20 20 21 23
22 22 20 19 18 1 3 4 1 3 2 3 4 3 4 5 1 6 6 3 4 5 6 7 5 6 5 3 4 4 6 6 10 5 3 2 5 6 8 15 18 20 19 21 22
22 21 19 16 0 1 2 1 0 1 5 1 1 1 1 2 2 2 3 4 1 5 6 5 4 4 4 6 9 4 10 8 4 2 4 1 5 1 7 14 20 20 20 21 22
22 21 16 4 0 4 2 0 3 4 3 0 1 1 1 4 5 4 1 3 3 3 5 6 1 2 3 7 7 9 5 7 4 4 2 2 2 5 5 10 18 19 20 20 20
23 18 5 3 0 0 1 3 4 6 6 1 2 2 4 4 2 2 3 7 2 1 2 7 3 3 7 3 6 3 4 5 4 3 3 8 9 1 6 9 14 15 18 20 21
21 15 3 1 1 2 2 4 6 4 4 6 3 5 5 5 5 4 5 8 4 2 4 6 4 2 1 1 1 4 6 4 3 1 7 2 2 6 9 12 14 15 17 18 19
16 8 2 2 5 2 3 5 3 3 3 4 4 2 5 7 4 6 4 4 7 5 1 1 6 2 4 2 2 5 7 6 7 4 4 2 5 5 11 12 13 14 15 17 19
8 2 2 5 4 2 5 5 2 2 3 5 3 4 3 5 4 5 6 3 6 7 4 5 6 5 3 4 1 1 3 3 1 0 2 5 5 5 8 12 14 15 16 17 18
2 2 3 8 4 3 6 5 3 3 4 2 3 3 3 6 5 6 3 4 3 7 0 3 6 5 7 4 3 1 2 2 2 4 6 4 4 4 9 12 13 15 15 15 15
2 2 3 8 2 6 5 5 5 4 3 5 3 4 4 3 2 3 5 4 7 4 5 3 2 7 6 8 4 7 5 6 2 2 4 8 2 5 7 9 10 11 13 14 15
2 2 4 5 6 3 3 3 3 5 8 7 5 5 4 3 4 3 4 4 8 3 3 2 3 3 5 4 11 7 5 5 3 5 3 3 1 5 6 7 9 9 11 11 11
3 1 4 1 5 3 3 5 6 6 6 5 5 5 3 3 3 3 4 5 7 4 2 4 1 4 3 2 6 7 4 3 2 2 5 1 2 5 7 8 8 9 10 11 14
4 3 6 7 2 6 5 3 4 6 5 6 3 4 5 5 5 1 3 3 5 2 5 3 2 7 7 2 2 1 3 2 3 3 3 4 2 4 6 8 5 6 7 7 9
5 2 1 4 7 6 5 3 3 4 4 6 4 5 3 2 4 2 4 7 6 10 4 5 3 1 2 3 2 3 1 2 2 3 6 4 3 5 5 5 3 2 6 8 9
4 3 4 3 3 5 6 3 2 2 3 3 5 1 1 2 2 3 3 2 5 5 4 4 3 3 4 6 7 5 4 5 3 2 2 2 4 4 6 4 4 5 6 8 10
3 2 4 5 2 3 2 2 2 2 5 5 3 2 1 1 1 5 6 5 4 1 2 1 1 3 5 3 4 2 2 3 2 3 1 2 4 4 6 11 10 3 3 7 10
Wind_Direction
358 349 342 327 305 286 280 273 267 266 268 270 273 273 285 293 304 113 239 217 194 156 102 114 94 118 80 107 110 135 66 222 246 169 246 184 186 235 120 125 223 199 184 336 119
359 355 346 337 319 296 282 279 277 273 273 271 271 269 280 344 317 247 237 219 186 139 110 135 143 125 87 153 76 102 135 218 214 217 273 320 171 172 149 231 238 263 134 98 131
358 356 348 340 328 312 292 278 280 278 276 268 263 249 229 86 312 246 231 195 177 142 113 105 116 115 126 118 196 177 201 215 260 231 281 283 289 185 172 254 213 217 201 157 156
356 353 347 346 338 321 303 283 270 277 269 260 243 213 161 119 260 307 240 170 153 122 97 104 106 113 135 202 185 250 236 214 266 183 324 245 313 277 200 236 196 228 163 161 174
354 353 351 349 347 334 316 292 272 264 260 250 227 189 146 126 252 320 109 121 105 110 131 126 126 135 172 193 151 213 264 231 255 276 256 288 242 233 260 259 248 135 165 186 194
352 352 353 349 348 345 330 302 271 252 244 220 199 158 157 243 296 134 119 98 122 103 130 132 171 184 161 190 168 243 254 275 277 252 239 210 313 132 313 1 350 176 209 205 205
351 351 351 348 349 346 334 304 265 244 215 195 178 163 170 237 43 128 123 129 153 129 139 185 138 120 126 274 311 308 321 318 244 268 231 166 283 231 282 295 313 306 248 233 230
349 349 348 348 347 346 334 305 235 208 184 174 158 141 244 322 141 127 129 79 89 105 107 159 144 105 162 212 8 1 55 346 306 127 338 156 272 315 12 95 352 348 352 334 322
345 344 344 345 344 345 340 319 150 152 157 150 113 149 267 165 147 170 151 139 107 69 55 89 95 123 57 87 3 2 252 229 316 207 86 84 279 327 41 20 31 26 22 17 9
339 339 338 340 340 341 339 120 131 108 111 203 21 16 285 276 148 130 61 115 111 103 55 54 53 111 62 108 228 206 224 240 250 308 92 180 271 298 9 60 34 29 21 15 8
335 334 332 333 332 330 319 99 39 356 259 188 196 222 51 22 127 65 146 85 82 67 149 23 118 220 197 205 140 114 189 262 258 247 317 225 263 281 75 49 35 31 23 15 8
331 329 327 327 325 324 156 176 177 179 306 218 232 286 256 218 96 47 129 119 123 153 107 41 246 229 138 181 228 269 288 279 284 260 172 289 271 35 58 58 50 35 26 15 6
328 325 322 321 320 115 160 162 173 135 107 305 187 181 223 152 195 201 132 120 130 145 184 167 221 60 148 151 183 222 207 231 229 327 255 316 305 131 93 65 48 39 30 22 14
326 323 319 319 263 189 104 331 104 120 64 267 249 247 128 143 93 3 173 134 108 198 163 230 272 204 166 217 164 262 213 224 236 77 240 57 285 163 143 62 43 28 24 16 12
326 325 316 279 282 136 160 351 115 60 12 4 169 270 84 122 139 5 343 43 153 163 120 250 193 154 163 218 151 225 139 186 176 176 325 220 170 242 25 27 24 23 20 16 13
328 333 360 87 246 97 332 98 57 52 256 66 45 51 87 19 43 60 81 40 56 177 236 247 297 252 216 186 181 123 97 58 52 104 270 193 162 3 18 6 19 19 21 17 10
326 327 301 177 165 321 99 62 54 150 339 349 6 20 82 359 23 30 51 30 33 12 352 326 247 290 266 177 72 87 67 322 335 18 229 273 174 66 62 48 39 24 19 17 15
322 319 309 94 302 175 81 60 180 71 13 340 15 37 78 358 54 12 98 70 23 20 33 4 330 47 359 274 198 179 160 171 231 211 235 111 230 101 82 61 43 36 24 19 17
324 337 14 326 325 107 82 66 70 14 301 343 355 62 47 3 35 65 58 67 40 17 47 5 268 336 24 315 318 139 178 215 237 341 58 190 98 131 65 35 30 26 24 19 15
81 41 328 331 349 73 75 99 100 18 332 309 76 8 82 4 44 36 74 350 61 37 171 35 296 358 311 344 29 79 341 311 16 277 242 240 122 97 14 6 13 15 19 15 14
51 48 266 345 67 51 93 85 113 38 35 30 97 77 64 44 47 41 70 35 2 357 48 42 173 306 348 28 349 345 17 6 260 11 263 283 120 36 30 16 14 16 18 10 11
83 59 332 354 57 43 65 59 35 359 13 44 78 64 69 53 47 79 108 58 335 355 39 345 108 287 247 88 81 63 50 47 47 319 309 273 208 22 42 46 24 19 15 10 9
81 330 333 8 108 91 75 70 60 26 29 44 58 39 3 71 114 52 59 122 29 65 109 332 336 356 100 210 24 61 12 346 245 199 223 268 265 48 26 21 26 19 15 10 6
75 58 352 40 20 97 108 61 95 32 55 56 86 60 55 41 14 107 49 60 358 335 348 172 206 175 196 175 166 203 74 345 136 125 241 236 266 350 0 352 358 13 3 355 354
24 84 173 20 24 68 75 52 75 37 44 36 60 66 79 85 13 36 39 357 359 359 49 78 177 336 190 235 147 110 15 1 135 205 158 252 198 262 297 327 338 343 353 354 349
84 96 34 62 21 51 22 46 78 85 52 34 87 103 154 158 192 223 76 186 253 342 60 9 296 31 300 42 90 96 29 91 75 79 57 102 289 218 275 299 326 326 357 345 339
356 43 96 358 33 80 35 124 65 143 49 89 172 134 176 215 217 229 211 212 223 183 67 347 96 57 281 104 135 340 345 27 125 67 342 236 248 322 323 325 316 298 346 336 327